PBD240 USNN-UUWW

Flight info

Callsign PBD240
Flight time N/A
Altitude 36000
Route SUGUP1N SUGUP G484 HMN L870 UNISO N869 EROGU L991 LURIM N604 UNANI T382 UMPER N604 GEMPU M864 IBROT T535 URIDU L158 DIMGI DIMGI3A
Aircraft B738/M-SDE2E3FGHIRWXY/LB1

Departure

Time 2026-04-25 15:32
Airport Nizhnevartovsk Airport (USNN)

Arrival

Time N/A
Airport Vnukovo International Airport (UUWW)
Time Latitude Longitude Altitude Speed Heading
2026-04-25 15:15 60.94534 76.49137 140 ft 0 kts 37°
2026-04-25 15:19 60.94537 76.49146 140 ft 0 kts 58°
2026-04-25 15:20 60.94581 76.49141 143 ft 10 kts 312°
2026-04-25 15:20 60.94584 76.49133 143 ft 0 kts 310°
2026-04-25 15:20 60.94592 76.49116 142 ft 0 kts 320°
2026-04-25 15:21 60.94593 76.49114 142 ft 0 kts 321°
2026-04-25 15:21 60.94596 76.49110 142 ft 2 kts 321°
2026-04-25 15:22 60.94623 76.49061 141 ft 6 kts 311°
2026-04-25 15:22 60.94625 76.49056 141 ft 0 kts 309°
2026-04-25 15:22 60.94635 76.49031 141 ft 5 kts 314°
2026-04-25 15:22 60.94664 76.48978 142 ft 5 kts 318°
2026-04-25 15:23 60.94697 76.48914 142 ft 8 kts 314°
2026-04-25 15:23 60.94743 76.48811 143 ft 9 kts 310°
2026-04-25 15:23 60.94752 76.48788 143 ft 1 kts 310°
2026-04-25 15:23 60.94761 76.48735 143 ft 6 kts 264°
2026-04-25 15:24 60.94723 76.48624 142 ft 12 kts 224°
2026-04-25 15:24 60.94703 76.48494 143 ft 8 kts 295°
2026-04-25 15:24 60.94715 76.48467 143 ft 0 kts 326°
2026-04-25 15:25 60.94718 76.48458 143 ft 3 kts 306°
2026-04-25 15:25 60.94737 76.48370 144 ft 10 kts 278°
2026-04-25 15:26 60.94726 76.48186 142 ft 12 kts 259°
2026-04-25 15:26 60.94720 76.48035 140 ft 7 kts 267°
2026-04-25 15:26 60.94721 76.48009 140 ft 0 kts 268°
2026-04-25 15:27 60.94720 76.47972 140 ft 8 kts 267°
2026-04-25 15:27 60.94619 76.47623 133 ft 17 kts 223°
2026-04-25 15:28 60.94531 76.47459 131 ft 14 kts 220°
2026-04-25 15:28 60.94474 76.47337 132 ft 6 kts 224°
2026-04-25 15:28 60.94471 76.47330 132 ft 0 kts 228°
2026-04-25 15:29 60.94467 76.47322 132 ft 4 kts 225°
2026-04-25 15:29 60.94418 76.47230 134 ft 13 kts 221°
2026-04-25 15:29 60.94337 76.47086 137 ft 16 kts 220°
2026-04-25 15:29 60.94246 76.46922 140 ft 17 kts 221°
2026-04-25 15:30 60.94189 76.46815 140 ft 15 kts 224°
2026-04-25 15:30 60.94130 76.46643 139 ft 7 kts 236°
2026-04-25 15:30 60.94115 76.46667 140 ft 6 kts 81°
2026-04-25 15:30 60.94132 76.46712 140 ft 0 kts 40°
2026-04-25 15:31 60.94221 76.46873 140 ft 47 kts 41°
2026-04-25 15:31 60.94640 76.47656 134 ft 110 kts 43°
2026-04-25 15:31 60.95335 76.48941 148 ft 157 kts 44°
2026-04-25 15:32 60.96217 76.50580 419 ft 174 kts 43°
2026-04-25 15:32 60.97137 76.52147 897 ft 184 kts 42°
2026-04-25 15:32 60.98166 76.53852 1415 ft 191 kts 41°
2026-04-25 15:33 61.00136 76.57777 2291 ft 222 kts 46°
2026-04-25 15:33 61.01519 76.59427 2863 ft 243 kts 14°
2026-04-25 15:33 61.03260 76.59227 3372 ft 266 kts 338°
2026-04-25 15:33 61.04703 76.56888 4142 ft 272 kts 302°
2026-04-25 15:34 61.05297 76.53244 4926 ft 272 kts 267°
2026-04-25 15:34 61.05044 76.49494 5800 ft 269 kts 253°
2026-04-25 15:34 61.04611 76.45733 6589 ft 274 kts 253°
2026-04-25 15:34 61.04346 76.43143 7167 ft 275 kts 255°
2026-04-25 15:35 61.03557 76.34109 9066 ft 279 kts 256°
2026-04-25 15:35 61.03227 76.30131 9866 ft 281 kts 256°
2026-04-25 15:35 61.02892 76.26093 10260 ft 298 kts 256°
2026-04-25 15:36 61.02145 76.17102 10949 ft 331 kts 256°
2026-04-25 15:36 61.01761 76.12416 11650 ft 334 kts 256°
2026-04-25 15:36 61.01373 76.07700 12351 ft 337 kts 256°
2026-04-25 15:37 61.00977 76.02939 13024 ft 340 kts 256°
2026-04-25 15:37 61.00573 75.98090 13676 ft 344 kts 256°
2026-04-25 15:37 61.00168 75.93270 14314 ft 347 kts 256°
2026-04-25 15:37 60.99755 75.88371 14931 ft 350 kts 256°
2026-04-25 15:38 60.99332 75.83372 15548 ft 353 kts 256°
2026-04-25 15:38 60.98911 75.78414 16135 ft 356 kts 256°
2026-04-25 15:38 60.98478 75.73347 16715 ft 359 kts 256°
2026-04-25 15:38 60.98044 75.68288 17276 ft 363 kts 256°
2026-04-25 15:39 60.97602 75.63161 17830 ft 366 kts 256°
2026-04-25 15:39 60.97194 75.58005 18363 ft 370 kts 259°
2026-04-25 15:39 60.97000 75.52660 18880 ft 376 kts 265°
2026-04-25 15:39 60.97010 75.47280 19415 ft 379 kts 267°
2026-04-25 15:40 60.97078 75.41876 19896 ft 383 kts 269°
2026-04-25 15:40 60.97149 75.38184 20227 ft 385 kts 269°
2026-04-25 15:40 60.97300 75.30841 20887 ft 389 kts 268°
2026-04-25 15:40 60.97414 75.25221 21354 ft 391 kts 268°
2026-04-25 15:41 60.97525 75.19685 21800 ft 394 kts 268°
2026-04-25 15:41 60.97637 75.13989 22245 ft 397 kts 268°
2026-04-25 15:41 60.97747 75.08281 22686 ft 400 kts 268°
2026-04-25 15:41 60.97854 75.02624 23119 ft 402 kts 268°
2026-04-25 15:42 60.97961 74.96844 23545 ft 404 kts 268°
2026-04-25 15:42 60.98065 74.91054 23954 ft 406 kts 268°
2026-04-25 15:42 60.98168 74.85201 24363 ft 409 kts 268°
2026-04-25 15:42 60.98268 74.79379 24739 ft 411 kts 268°
2026-04-25 15:43 60.98367 74.73455 25122 ft 413 kts 268°
2026-04-25 15:43 60.98463 74.67527 25490 ft 416 kts 268°
2026-04-25 15:43 60.98558 74.61597 25844 ft 418 kts 268°
2026-04-25 15:43 60.98649 74.55656 26198 ft 420 kts 268°
2026-04-25 15:44 60.98741 74.49573 26536 ft 423 kts 268°
2026-04-25 15:44 60.98828 74.43569 26876 ft 425 kts 268°
2026-04-25 15:44 60.98914 74.37446 27199 ft 427 kts 268°
2026-04-25 15:44 60.98998 74.31333 27544 ft 429 kts 267°
2026-04-25 15:45 60.99079 74.25173 27855 ft 431 kts 267°
2026-04-25 15:45 60.99157 74.19018 28134 ft 434 kts 267°
2026-04-25 15:45 60.99232 74.12832 28442 ft 435 kts 267°
2026-04-25 15:45 60.99281 74.08669 28638 ft 437 kts 267°
2026-04-25 15:46 60.99377 74.00325 29016 ft 439 kts 267°
2026-04-25 15:46 60.99445 73.94000 29298 ft 441 kts 267°
2026-04-25 15:46 60.99511 73.87690 29569 ft 443 kts 267°
2026-04-25 15:46 60.99575 73.81351 29863 ft 444 kts 267°
2026-04-25 15:47 60.99635 73.74987 30207 ft 444 kts 267°
2026-04-25 15:47 60.99694 73.68624 30552 ft 444 kts 267°
2026-04-25 15:47 60.99749 73.62244 30903 ft 443 kts 267°
2026-04-25 15:47 60.99798 73.55916 31252 ft 442 kts 267°
2026-04-25 15:48 60.99839 73.49674 31584 ft 442 kts 267°
2026-04-25 15:48 60.99886 73.43305 31921 ft 441 kts 267°
2026-04-25 15:48 60.99950 73.37004 32246 ft 440 kts 268°
2026-04-25 15:48 61.00040 73.30750 32583 ft 440 kts 268°
2026-04-25 15:49 61.00160 73.24459 32894 ft 439 kts 268°
2026-04-25 15:49 61.00308 73.18176 33206 ft 439 kts 269°
2026-04-25 15:49 61.00481 73.11948 33539 ft 438 kts 269°
2026-04-25 15:49 61.00683 73.05656 33872 ft 436 kts 269°
2026-04-25 15:50 61.00900 72.99472 34191 ft 435 kts 269°
2026-04-25 15:50 61.01127 72.93239 34501 ft 434 kts 269°
2026-04-25 15:50 61.01337 72.87124 34761 ft 433 kts 269°
2026-04-25 15:50 61.01519 72.80925 35027 ft 432 kts 268°
2026-04-25 15:51 61.01659 72.74783 35276 ft 431 kts 268°
2026-04-25 15:51 61.01727 72.70675 35442 ft 430 kts 267°
2026-04-25 15:51 61.01798 72.62414 35715 ft 430 kts 266°
2026-04-25 15:51 61.01791 72.56274 35724 ft 434 kts 265°
2026-04-25 15:52 61.01638 72.43899 35721 ft 431 kts 263°
2026-04-25 15:52 61.01311 72.31619 35723 ft 427 kts 261°
2026-04-25 15:53 61.00891 72.19422 35723 ft 427 kts 261°
2026-04-25 15:53 61.00505 72.07189 35723 ft 429 kts 262°
2026-04-25 15:54 61.00268 71.94919 35723 ft 430 kts 263°
2026-04-25 15:54 61.00169 71.82609 35722 ft 431 kts 266°
2026-04-25 15:55 61.00393 71.70250 35722 ft 432 kts 268°
2026-04-25 15:55 61.00645 71.57848 35722 ft 432 kts 268°
2026-04-25 15:56 61.00882 71.45486 35722 ft 432 kts 268°
2026-04-25 15:56 61.01109 71.33060 35723 ft 432 kts 267°
2026-04-25 15:57 61.01320 71.20731 35714 ft 432 kts 267°
2026-04-25 15:57 61.01520 71.08334 35686 ft 432 kts 267°
2026-04-25 15:58 61.01712 70.95971 35668 ft 432 kts 266°
2026-04-25 15:58 61.01918 70.83579 35669 ft 436 kts 267°
2026-04-25 15:59 61.02249 70.71078 35669 ft 440 kts 269°
2026-04-25 15:59 61.02749 70.58443 35668 ft 440 kts 270°
2026-04-25 16:00 61.03255 70.47978 35668 ft 440 kts 271°
2026-04-25 16:00 61.03961 70.33325 35669 ft 440 kts 269°
2026-04-25 16:01 61.04405 70.20773 35669 ft 439 kts 267°
2026-04-25 16:01 61.04601 70.08216 35669 ft 437 kts 265°
2026-04-25 16:02 61.04543 69.95709 35669 ft 435 kts 263°
2026-04-25 16:02 61.04306 69.83284 35668 ft 434 kts 262°
2026-04-25 16:03 61.03991 69.70867 35668 ft 434 kts 262°
2026-04-25 16:03 61.03685 69.58433 35668 ft 434 kts 262°
2026-04-25 16:04 61.03466 69.45937 35668 ft 435 kts 263°
2026-04-25 16:04 61.03377 69.33423 35669 ft 436 kts 264°
2026-04-25 16:05 61.03354 69.20947 35668 ft 436 kts 265°
2026-04-25 16:06 61.04044 69.02186 35669 ft 442 kts 272°
2026-04-25 16:06 61.04865 68.89548 35669 ft 445 kts 272°
2026-04-25 16:07 61.05690 68.76840 35668 ft 446 kts 272°
2026-04-25 16:07 61.06504 68.64212 35668 ft 445 kts 272°
2026-04-25 16:08 61.07309 68.51556 35668 ft 444 kts 272°
2026-04-25 16:08 61.08102 68.38904 35668 ft 445 kts 272°
2026-04-25 16:09 61.08884 68.26208 35668 ft 444 kts 272°
2026-04-25 16:09 61.09653 68.13502 35669 ft 444 kts 272°
2026-04-25 16:10 61.10280 68.02950 35668 ft 444 kts 272°
2026-04-25 16:10 61.11143 67.88211 35669 ft 444 kts 272°
2026-04-25 16:11 61.11872 67.75498 35669 ft 445 kts 271°
2026-04-25 16:11 61.12590 67.62789 35668 ft 445 kts 272°
2026-04-25 16:12 61.13292 67.50145 35669 ft 444 kts 272°
2026-04-25 16:12 61.13987 67.37413 35668 ft 444 kts 272°
2026-04-25 16:13 61.14668 67.24716 35668 ft 443 kts 271°
2026-04-25 16:13 61.15335 67.11977 35668 ft 443 kts 271°
2026-04-25 16:14 61.15982 66.99284 35669 ft 443 kts 272°
2026-04-25 16:14 61.16623 66.86637 35669 ft 444 kts 272°
2026-04-25 16:15 61.17261 66.73930 35669 ft 444 kts 272°
2026-04-25 16:15 61.17885 66.61212 35669 ft 443 kts 272°
2026-04-25 16:16 61.18497 66.48470 35689 ft 443 kts 272°
2026-04-25 16:16 61.19096 66.35722 35696 ft 444 kts 272°
2026-04-25 16:17 61.19679 66.23040 35695 ft 444 kts 271°
2026-04-25 16:17 61.20255 66.10233 35695 ft 443 kts 271°
2026-04-25 16:18 61.20813 65.97566 35696 ft 443 kts 271°
2026-04-25 16:18 61.21363 65.84824 35696 ft 443 kts 271°
2026-04-25 16:19 61.21897 65.72135 35696 ft 444 kts 271°
2026-04-25 16:19 61.22424 65.59354 35696 ft 443 kts 271°
2026-04-25 16:20 61.23191 65.40194 35696 ft 443 kts 271°
2026-04-25 16:21 61.23926 65.21131 35695 ft 443 kts 270°
2026-04-25 16:21 61.24404 65.08334 35696 ft 443 kts 270°
2026-04-25 16:22 61.24865 64.95561 35695 ft 443 kts 271°
2026-04-25 16:22 61.25308 64.82810 35696 ft 444 kts 271°
2026-04-25 16:23 61.25751 64.69959 35696 ft 445 kts 272°
2026-04-25 16:23 61.26186 64.57206 35696 ft 445 kts 272°
2026-04-25 16:24 61.26617 64.44377 35696 ft 444 kts 272°
2026-04-25 16:24 61.27047 64.31529 35696 ft 444 kts 271°
2026-04-25 16:25 61.27461 64.18731 35695 ft 444 kts 271°
2026-04-25 16:25 61.27861 64.05923 35696 ft 444 kts 271°
2026-04-25 16:26 61.28250 63.93112 35696 ft 444 kts 271°
2026-04-25 16:26 61.28627 63.80273 35696 ft 444 kts 271°
2026-04-25 16:27 61.28644 63.67533 35695 ft 441 kts 263°
2026-04-25 16:27 61.27534 63.55011 35698 ft 439 kts 254°
2026-04-25 16:28 61.26035 63.42728 35696 ft 439 kts 254°
2026-04-25 16:28 61.24503 63.30488 35696 ft 438 kts 253°
2026-04-25 16:29 61.22946 63.18273 35695 ft 438 kts 252°
2026-04-25 16:29 61.21365 63.06022 35695 ft 439 kts 253°
2026-04-25 16:30 61.19754 62.93706 35696 ft 443 kts 253°
2026-04-25 16:30 61.18132 62.81395 35694 ft 446 kts 253°
2026-04-25 16:31 61.16491 62.68986 35682 ft 445 kts 253°
2026-04-25 16:31 61.14848 62.56657 35673 ft 444 kts 253°
2026-04-25 16:32 61.13185 62.44276 35670 ft 444 kts 253°
2026-04-25 16:32 61.11518 62.31981 35669 ft 445 kts 252°
2026-04-25 16:33 61.09833 62.19642 35668 ft 445 kts 252°
2026-04-25 16:33 61.08144 62.07381 35668 ft 445 kts 252°
2026-04-25 16:34 61.06443 61.95118 35669 ft 445 kts 252°
2026-04-25 16:34 61.04734 61.82897 35669 ft 445 kts 252°
2026-04-25 16:35 61.03012 61.70674 35669 ft 445 kts 252°
2026-04-25 16:35 61.01273 61.58421 35669 ft 445 kts 252°
2026-04-25 16:36 60.99530 61.46145 35669 ft 445 kts 253°
2026-04-25 16:36 60.97796 61.33961 35669 ft 445 kts 252°
2026-04-25 16:37 60.96045 61.21750 35668 ft 444 kts 252°
2026-04-25 16:37 60.94274 61.09514 35668 ft 446 kts 252°
2026-04-25 16:38 60.92495 60.97323 35669 ft 449 kts 252°
2026-04-25 16:38 60.90686 60.84989 35668 ft 449 kts 252°
2026-04-25 16:39 60.88874 60.72700 35668 ft 448 kts 252°
2026-04-25 16:39 60.87059 60.60493 35668 ft 448 kts 252°
2026-04-25 16:40 60.85535 60.50314 35668 ft 448 kts 252°
2026-04-25 16:40 60.83390 60.36100 35668 ft 448 kts 252°
2026-04-25 16:41 60.81530 60.23865 35669 ft 448 kts 252°
2026-04-25 16:41 60.78726 60.05592 35669 ft 448 kts 252°
2026-04-25 16:42 60.76845 59.93438 35669 ft 448 kts 252°
2026-04-25 16:42 60.74952 59.81294 35668 ft 448 kts 252°
2026-04-25 16:43 60.73049 59.69176 35668 ft 448 kts 252°
2026-04-25 16:43 60.71140 59.57093 35668 ft 448 kts 252°
2026-04-25 16:44 60.69211 59.44975 35668 ft 448 kts 252°
2026-04-25 16:44 60.67276 59.32903 35669 ft 448 kts 251°
2026-04-25 16:45 60.65331 59.20842 35647 ft 448 kts 251°
2026-04-25 16:45 60.63367 59.08759 35577 ft 448 kts 251°
2026-04-25 16:46 60.61400 58.96728 35532 ft 448 kts 251°
2026-04-25 16:46 60.59738 58.86688 35534 ft 452 kts 251°
2026-04-25 16:47 60.57340 58.72428 35533 ft 457 kts 251°
2026-04-25 16:47 60.55316 58.60238 35532 ft 455 kts 252°
2026-04-25 16:48 60.53290 58.48088 35533 ft 454 kts 252°
2026-04-25 16:48 60.51254 58.36006 35534 ft 455 kts 251°
2026-04-25 16:49 60.49203 58.23927 35534 ft 455 kts 251°
2026-04-25 16:49 60.47117 58.11735 35533 ft 455 kts 251°
2026-04-25 16:50 60.45042 57.99699 35533 ft 455 kts 251°
2026-04-25 16:50 60.42943 57.87608 35533 ft 455 kts 251°
2026-04-25 16:51 60.40848 57.75621 35533 ft 455 kts 251°
2026-04-25 16:51 60.39077 57.65553 35534 ft 455 kts 251°
2026-04-25 16:52 60.36606 57.51551 35534 ft 455 kts 251°
2026-04-25 16:52 60.34476 57.39467 35534 ft 455 kts 251°
2026-04-25 16:53 60.31278 57.21455 35533 ft 455 kts 250°
2026-04-25 16:54 60.29133 57.09477 35533 ft 455 kts 250°
2026-04-25 16:54 60.26974 56.97528 35534 ft 459 kts 250°
2026-04-25 16:55 60.24761 56.85373 35534 ft 465 kts 251°
2026-04-25 16:55 60.22525 56.73109 35532 ft 465 kts 251°
2026-04-25 16:56 60.20303 56.60999 35533 ft 463 kts 251°
2026-04-25 16:56 60.18054 56.48830 35534 ft 463 kts 251°
2026-04-25 16:57 60.15802 56.36727 35534 ft 464 kts 251°
2026-04-25 16:57 60.13547 56.24672 35533 ft 464 kts 250°